Location: Katowice
(50.2611°N, 19.0242°E)
Time: 09:24:09
(UTC+02:00)

Tiros 1 - Pass Details

Date: 28 August 2019
Orbit: 630 x 664 km, 48.4° (Epoch: 20 September)

Event Time Altitude Azimuth Distance (km) Brightness Sun altitude
Exits shadow 02:22:26 19° 111° (ESE) 1,528 9.1 -26.2°
Drops below altitude 10° 02:23:46 10° 108° (ESE) 2,026 9.8 -26.2°
Sets 02:26:06 0° 105° (ESE) 2,939 10.7 -26.0°
